Weather History for FAGG - October, 2012

Change the Weather History Date:

Wednesday, October 24, 2012

  Actual Average Record
Temperature  
Mean Temperature 58 °F -  
Max Temperature 67 °F 69 °F 75 °F (2013)
Min Temperature 50 °F 52 °F 48 °F (2000)
Degree Days  
Heating Degree Days 6    
Growing Degree Days 8 (Base 50)    
Moisture  
Dew Point 52 °F    
Average Humidity 76    
Maximum Humidity 94    
Minimum Humidity 48    
Precipitation  
Precipitation 0.00 in - - ()
Sea Level Pressure  
Sea Level Pressure 30.12 in    
Wind  
Wind Speed 10 mph ()    
Max Wind Speed 25 mph    
Max Gust Speed -    
Visibility 8.0 miles    
Events      
Averages and records for this station are not official NWS values.
T = Trace of Precipitation, MM = Missing Value Source: Averaged Metar Reports

Daily Weather History Graph

Daily Weather History Graph

Search for Another Location

Airport or City:

Trip Planner

Search our weather history database for the weather conditions in past years. The results will help you decide how hot, cold, wet, or windy it might be!

Date:

Astronomy

Oct. 24, 2012 Rise Set
Actual Time 5:37 AM SAST 6:51 PM SAST
Civil Twilight 5:11 AM SAST 7:17 PM SAST
Nautical Twilight 4:40 AM SAST 7:49 PM SAST
Astronomical Twilight 4:08 AM SAST 8:21 PM SAST
Moon 2:04 PM SAST (10/24) 2:21 AM SAST (10/24)
Length of Visible Light 14h 06m
Length of Day
13h 14m
Waxing Gibbous, 73% of the Moon is Illuminated
Oct 24
Waxing Gibbous
Oct 29
Full
Nov 7
Last Quarter
Nov 14
New
Nov 20
First Quarter

Hourly Weather History & Observations

Time (SAST) Temp. Dew Point Humidity Pressure Visibility Wind Dir Wind Speed Gust Speed Precip Events Conditions
12:00 AM 55.4 °F 51.8 °F 88% 30.27 in 6.2 mi ESE 8.1 mph - N/A   Mostly Cloudy
1:00 AM 53.6 °F 51.8 °F 94% 30.27 in 6.2 mi East 5.8 mph - N/A   Partly Cloudy
2:00 AM 53 °F 50 °F 87% 30.25 in 12 mi ENE 5.8 mph - -  
2:00 AM 53.6 °F 50.0 °F 88% 30.24 in 6.2 mi ENE 5.8 mph - N/A   Partly Cloudy
3:00 AM 53.6 °F 50.0 °F 88% 30.21 in - East 8.1 mph - N/A   Clear
4:00 AM 53.6 °F 50.0 °F 88% 30.21 in - ESE 10.4 mph - N/A   Clear
5:00 AM 53 °F 49 °F 84% 30.21 in 12 mi East 10.4 mph - -   Scattered Clouds
5:00 AM 53.6 °F 48.2 °F 82% 30.21 in 6.2 mi East 10.4 mph - N/A   Partly Cloudy
6:00 AM 51.8 °F 48.2 °F 88% 30.21 in 6.2 mi East 5.8 mph - N/A   Partly Cloudy
7:00 AM 55.4 °F 48.2 °F 77% 30.21 in 6.2 mi East 8.1 mph - N/A   Partly Cloudy
8:00 AM 60 °F 49 °F 59% 30.22 in 12 mi East 10.4 mph - -   Scattered Clouds
8:00 AM 60.8 °F 50.0 °F 68% 30.21 in 6.2 mi East 10.4 mph - N/A   Partly Cloudy
9:00 AM 64.4 °F 50.0 °F 59% 30.18 in 6.2 mi ESE 13.8 mph - N/A   Partly Cloudy
10:00 AM 64.4 °F 48.2 °F 56% 30.18 in 6.2 mi ESE 16.1 mph - N/A   Partly Cloudy
11:00 AM 66 °F 51 °F 48% 30.16 in 12 mi ESE 20.7 mph - -   Scattered Clouds
11:00 AM 66.2 °F 50.0 °F 56% 30.15 in 6.2 mi ESE 20.7 mph - N/A   Partly Cloudy
12:00 PM 66.2 °F 51.8 °F 60% 30.12 in 6.2 mi ESE 25.3 mph - N/A   Partly Cloudy
1:00 PM 66.2 °F 51.8 °F 60% 30.09 in 6.2 mi ESE 21.9 mph - N/A   Partly Cloudy
2:00 PM 66 °F 54 °F 56% 30.06 in 12 mi ESE 24.2 mph - -   Clear
2:00 PM 66.2 °F 53.6 °F 64% 30.06 in - East 23.0 mph - N/A   Clear
3:00 PM 64.4 °F 55.4 °F 73% 30.04 in - ESE 24.2 mph - N/A   Clear
4:00 PM 64.4 °F 55.4 °F 73% 30.01 in - ESE 24.2 mph - N/A   Clear
5:00 PM 64.4 °F 57.2 °F 77% 30.01 in - ESE 18.4 mph - N/A   Clear
6:00 PM 62.6 °F 55.4 °F 77% 30.01 in - East 15.0 mph - N/A   Clear
7:00 PM 60.8 °F 55.4 °F 82% 30.01 in - ESE 11.5 mph - N/A   Clear
8:00 PM 59 °F 55 °F 82% 30.00 in 12 mi East 9.2 mph - -  
8:00 PM 59.0 °F 55.4 °F 88% 30.01 in - East 9.2 mph - N/A   Clear
9:00 PM 57.2 °F 53.6 °F 88% 29.98 in - ENE 5.8 mph - N/A   Clear
10:00 PM 57.2 °F 53.6 °F 88% 29.98 in 5.6 mi NNE 2.3 mph - N/A   Unknown
11:00 PM 53.6 °F 51.8 °F 94% 29.95 in - NNW 3.5 mph - N/A   Clear